Location: Newark
(48.3453°N, 0.5589°E)
Time: 02:05:36
(UTC+00:00)

A-11 Canister half - Pass Details

Date: 06 December 2019
Orbit: 1516 x 1683 km, 47.2° (Epoch: 20 January)

Event Time Altitude Azimuth Distance (km) Brightness Sun altitude
Rises 15:39:41 0° 264° (W) 4,822 12.7 2.4°
Reaches altitude 10° 15:42:45 10° 264° (W) 3,858 12.2 2.0°
Maximum altitude 15:52:42 85° 178° (S) 1,673 9.4 0.7°
Drops below altitude 10° 16:02:54 10° 91° (E) 3,946 10.7 -0.7°
Sets 16:06:05 0° 91° (E) 4,937 11.2 -1.1°
